CW8845 Weather Reports


Display with metric or nautical units.
time (UTC)temp
F
wind
direction
speed
MPH
gust
MPH
rain 1hr
in
rain 24hr
in
rain mn
in
humidity
%
barometer
mb
20260505021630 68 217 0.0 3.0 0.00 0.00 0.00 28 1004.2
20260505020618 69 117 0.0 1.0 0.00 0.00 0.00 25 1004.0
20260505015617 69 109 2.0 5.0 0.00 0.00 0.00 24 1003.9
20260505014622 70 137 2.0 7.0 0.00 0.00 0.00 24 1003.9
20260505013616 70 107 3.0 9.0 0.00 0.00 0.00 24 1004.0
20260505012626 70 211 6.0 19.0 0.00 0.00 0.00 23 1004.2
20260505011614 70 200 9.0 16.0 0.00 0.00 0.00 23 1004.3
20260505010643 71 231 4.0 12.0 0.00 0.00 0.00 23 1004.5
20260505005644 71 76 5.0 9.0 0.00 0.00 0.00 22 1004.4
20260505004631 71 188 5.0 8.0 0.00 0.00 0.00 24 1004.4
20260505003638 71 118 2.0 8.0 0.00 0.00 0.00 23 1004.2
20260505002624 72 180 4.0 9.0 0.00 0.00 0.00 23 1004.6
20260505001616 71 88 6.0 12.0 0.00 0.00 0.00 22 1004.2
20260505000620 72 90 9.0 14.0 0.00 0.00 0.00 23 1004.2
20260504235617 73 59 5.0 13.0 0.00 0.00 0.00 23 1004.1
20260504234623 74 27 4.0 7.0 0.00 0.00 0.00 21 1004.2
20260504233616 75 360 3.0 9.0 0.00 0.00 0.00 19 1004.1
20260504232626 76 306 3.0 9.0 0.00 0.00 0.00 17 1004.1
20260504231616 77 265 6.0 12.0 0.00 0.00 0.00 16 1004.1
20260504230626 77 168 2.0 7.0 0.00 0.00 0.00 16 1004.1
20260504225631 77 180 5.0 11.0 0.00 0.00 0.00 16 1004.1
20260504224621 77 217 1.0 7.0 0.00 0.00 0.00 16 1004.2
20260504223632 77 227 4.0 10.0 0.00 0.00 0.00 17 1004.3
20260504222622 76 98 3.0 9.0 0.00 0.00 0.00 16 1004.2
20260504221613 78 300 2.0 8.0 0.00 0.00 0.00 16 1004.6
20260504220621 77 211 2.0 6.0 0.00 0.00 0.00 16 1004.7
20260504215619 76 200 4.0 11.0 0.00 0.00 0.00 18 1004.8
20260504214627 76 169 6.0 13.0 0.00 0.00 0.00 18 1004.9
20260504213617 77 160 7.0 14.0 0.00 0.00 0.00 18 1005.0
20260504212644 76 235 7.0 13.0 0.00 0.00 0.00 19 1005.3
20260504211629 75 101 3.0 14.0 0.00 0.00 0.00 19 1005.4
20260504210618 75 175 3.0 12.0 0.00 0.00 0.00 18 1005.6
20260504205641 75 211 5.0 12.0 0.00 0.00 0.00 19 1005.7
20260504204613 75 208 6.0 11.0 0.00 0.00 0.00 18 1005.9
20260504203620 75 202 8.0 14.0 0.00 0.00 0.00 21 1006.0
20260504202629 75 178 7.0 15.0 0.00 0.00 0.00 20 1006.0
20260504201615 75 186 9.0 15.0 0.00 0.00 0.00 20 1006.2
20260504200625 75 156 4.0 10.0 0.00 0.00 0.00 21 1006.2
20260504195626 75 168 4.0 10.0 0.00 0.00 0.00 21 1006.3
20260504194613 75 194 4.0 12.0 0.00 0.00 0.00 21 1006.6
20260504193640 74 184 5.0 9.0 0.00 0.00 0.00 22 1006.6
20260504192614 74 231 5.0 10.0 0.00 0.00 0.00 22 1006.8
20260504191622 74 231 5.0 11.0 0.00 0.00 0.00 21 1007.0
20260504190613 73 223 6.0 11.0 0.00 0.00 0.00 21 1007.1
20260504185615 73 257 3.0 11.0 0.00 0.00 0.00 22 1007.3
20260504184629 73 202 5.0 9.0 0.00 0.00 0.00 24 1007.5
20260504183620 72 179 5.0 11.0 0.00 0.00 0.00 24 1007.6
20260504182648 72 228 6.0 10.0 0.00 0.00 0.00 24 1007.7
20260504181615 71 159 6.0 11.0 0.00 0.00 0.00 25 1007.9
20260504180628 71 218 5.0 10.0 0.00 0.00 0.00 26 1008.0
20260504175614 71 72 2.0 12.0 0.00 0.00 0.00 26 1008.1
20260504174622 71 224 5.0 9.0 0.00 0.00 0.00 27 1008.1
20260504173631 70 219 4.0 10.0 0.00 0.00 0.00 29 1008.2
20260504172620 70 223 5.0 10.0 0.00 0.00 0.00 30 1008.3
20260504171613 70 238 4.0 8.0 0.00 0.00 0.00 29 1008.3
20260504170623 69 190 4.0 8.0 0.00 0.00 0.00 28 1008.4
20260504150631 55 53 3.0 5.0 0.00 0.00 0.00 37 1008.8
20260504140623 44 55 2.0 5.0 0.00 0.00 0.00 54 1008.9
20260504130613 38 68 2.0 4.0 0.00 0.00 0.00 58 1008.7
20260504110618 37 19 1.0 4.0 0.00 0.00 0.00 57 1008.2
20260504081636 41 17 1.0 5.0 0.00 0.00 0.00 51 1008.4
20260504080620 41 17 2.0 5.0 0.00 0.00 0.00 53 1008.6
20260504050624 50 10 1.0 5.0 0.00 0.00 0.00 38 1009.2
20260504045629 50 9 3.0 6.0 0.00 0.00 0.00 38 1009.2
20260504044615 49 32 2.0 5.0 0.00 0.00 0.00 38 1009.2
20260504043624 50 34 1.0 3.0 0.00 0.00 0.00 38 1009.2
20260504042631 51 26 2.0 5.0 0.00 0.00 0.00 36 1009.0
20260504041643 52 9 2.0 3.0 0.00 0.00 0.00 33 1009.0
20260504040648 54 46 0.0 2.0 0.00 0.00 0.00 31 1008.8
20260504035628 56 46 0.0 0.0 0.00 0.00 0.00 28 1008.7
20260504034616 58 46 0.0 0.0 0.00 0.00 0.00 26 1008.8
20260504033626 59 46 0.0 0.0 0.00 0.00 0.00 25 1008.7
20260504032616 61 46 0.0 0.0 0.00 0.00 0.00 24 1008.7
20260504031642 62 46 0.0 3.0 0.00 0.00 0.00 23 1008.6
20260504030648 62 139 1.0 3.0 0.00 0.00 0.00 22 1008.5
20260504025615 63 142 0.0 1.0 0.00 0.00 0.00 23 1008.5
20260504024621 64 142 1.0 3.0 0.00 0.00 0.00 20 1008.5
20260504023627 65 137 2.0 5.0 0.00 0.00 0.00 20 1008.5
20260504022614 67 142 2.0 4.0 0.00 0.00 0.00 19 1008.4